Tillbaka till svenska Fidonet
English   Information   Debug  
FILM   0/18
FNEWS_PUBLISH   5034
FN_SYSOP   42247
FN_SYSOP_OLD1   71952
FTP_FIDO   0/2
FTSC_PUBLIC   0/13979
FUNNY   0/4886
GENEALOGY.EUR   0/71
GET_INFO   105
GOLDED   0/408
HAM   0/16786
HOLYSMOKE   0/6791
HOT_SITES   0/1
HTMLEDIT   0/71
HUB203   466
HUB_100   264
HUB_400   39
HUMOR   0/29
IC   0/2851
INTERNET   0/424
INTERUSER   0/3
IP_CONNECT   719
JAMNNTPD   0/233
JAMTLAND   0/47
KATTY_KORNER   0/41
LAN   0/16
LINUX-USER   0/19
LINUXHELP   1040/1155
LINUX   0/22427
LINUX_BBS   0/957
mail   18.68
mail_fore_ok   249
MENSA   0/341
MODERATOR   0/102
MONTE   0/992
MOSCOW_OKLAHOMA   0/1245
MUFFIN   0/783
MUSIC   0/321
N203_STAT   938
N203_SYSCHAT   313
NET203   321
NET204   69
NET_DEV   0/10
NORD.ADMIN   0/101
NORD.CHAT   0/2572
NORD.FIDONET   189
NORD.HARDWARE   0/28
NORD.KULTUR   0/114
NORD.PROG   0/32
NORD.SOFTWARE   0/88
NORD.TEKNIK   0/58
NORD   0/453
OCCULT_CHAT   0/93
OS2BBS   0/787
OS2DOSBBS   0/580
OS2HW   0/42
OS2INET   0/37
OS2LAN   0/134
OS2PROG   0/36
OS2REXX   0/113
OS2USER-L   207
OS2   1383/4835
OSDEBATE   0/18996
PASCAL   0/490
PERL   0/457
PHP   0/45
POINTS   0/405
POLITICS   19527/29554
POL_INC   0/14731
PSION   103
R20_ADMIN   1133
R20_AMATORRADIO   0/2
R20_BEST_OF_FIDONET   16
R20_CHAT   0/897
R20_DEPP   0/3
R20_DEV   400
R20_ECHO2   1933
R20_ECHOPRES   0/35
R20_ESTAT   0/719
R20_FIDONETPROG...
...RAM.MYPOINT
  0/2
R20_FIDONETPROGRAM   0/22
R20_FIDONET   0/248
R20_FILEFIND   0/24
R20_FILEFOUND   0/22
R20_HIFI   0/3
R20_INFO2   3827
R20_INTERNET   0/12940
R20_INTRESSE   0/60
R20_INTR_KOM   0/99
R20_KANDIDAT.CHAT   42
R20_KANDIDAT   28
R20_KOM_DEV   112
R20_KONTROLL   0/13360
R20_KORSET   0/18
R20_LOKALTRAFIK   0/24
R20_MODERATOR   0/1852
R20_NC   76
R20_NET200   245
R20_NETWORK.OTH...
...ERNETS
  0/13
R20_OPERATIVSYS...
...TEM.LINUX
  0/44
R20_PROGRAMVAROR   0/1
R20_REC2NEC   534
R20_SFOSM   0/341
R20_SF   0/108
R20_SPRAK.ENGLISH   0/1
R20_SQUISH   107
R20_TEST   2
R20_WORST_OF_FIDONET   20
RAR   0/9
RA_MULTI   106
RA_UTIL   0/162
REGCON.EUR   0/2072
REGCON   0/13
SCIENCE   0/1206
SF   0/239
SHAREWARE_SUPPORT   0/5146
SHAREWRE   0/14
SIMPSONS   0/169
STATS_OLD1   0/2539.065
STATS_OLD2   0/2530
STATS_OLD3   0/2395.095
STATS_OLD4   0/1692.25
SURVIVOR   0/495
SYSOPS_CORNER   0/3
SYSOP   0/84
TAGLINES   0/112
TEAMOS2   0/4530
TECH   0/2617
TEST.444   0/105
TRAPDOOR   0/19
TREK   0/755
TUB   0/290
UFO   0/40
UNIX   0/1316
USA_EURLINK   0/102
USR_MODEMS   0/1
VATICAN   0/2740
VIETNAM_VETS   0/14
VIRUS   0/378
VIRUS_INFO   0/201
VISUAL_BASIC   0/473
WHITEHOUSE   0/5187
WIN2000   0/101
WIN32   0/30
WIN95   0/4291
WIN95_OLD1   0/70272
WINDOWS   0/1517
WWB_SYSOP   0/419
WWB_TECH   0/810
ZCC-PUBLIC   0/1
ZEC   4

 
4DOS   0/134
ABORTION   0/7
ALASKA_CHAT   0/506
ALLFIX_FILE   0/1313
ALLFIX_FILE_OLD1   0/7997
ALT_DOS   0/152
AMATEUR_RADIO   0/1039
AMIGASALE   0/14
AMIGA   0/331
AMIGA_INT   0/1
AMIGA_PROG   0/20
AMIGA_SYSOP   0/26
ANIME   0/15
ARGUS   0/924
ASCII_ART   0/340
ASIAN_LINK   0/651
ASTRONOMY   0/417
AUDIO   0/92
AUTOMOBILE_RACING   0/105
BABYLON5   0/17862
BAG   135
BATPOWER   0/361
BBBS.ENGLISH   0/382
BBSLAW   0/109
BBS_ADS   0/5290
BBS_INTERNET   0/507
BIBLE   0/3563
BINKD   0/1119
BINKLEY   0/215
BLUEWAVE   0/2173
CABLE_MODEMS   0/25
CBM   0/46
CDRECORD   0/66
CDROM   0/20
CLASSIC_COMPUTER   0/378
COMICS   0/15
CONSPRCY   0/899
COOKING   42382
COOKING_OLD1   0/24719
COOKING_OLD2   23886/40862
COOKING_OLD3   0/37489
COOKING_OLD4   28539/35496
COOKING_OLD5   9370
C_ECHO   0/189
C_PLUSPLUS   0/31
DIRTY_DOZEN   0/201
DOORGAMES   0/2388
DOS_INTERNET   0/196
duplikat   6102
ECHOLIST   15569/18295
EC_SUPPORT   0/318
ELECTRONICS   0/359
ELEKTRONIK.GER   1534
ENET.LINGUISTIC   0/13
ENET.POLITICS   0/4
ENET.SOFT   0/11701
ENET.SYSOP   34388
ENET.TALKS   0/32
ENGLISH_TUTOR   0/2000
EVOLUTION   0/1335
FDECHO   0/217
FDN_ANNOUNCE   0/7068
FIDONEWS   25220
FIDONEWS_OLD1   0/49742
FIDONEWS_OLD2   0/35949
FIDONEWS_OLD3   0/30874
FIDONEWS_OLD4   0/37224
FIDO_SYSOP   12977
FIDO_UTIL   0/180
FILEFIND   0/209
FILEGATE   0/212
Möte HAM, 16786 texter
 lista första sista föregående nästa
Text 2467, 788 rader
Skriven 2008-08-28 17:30:20 av Amsat List (1:323/120.0)
Ärende: [keps]  orbs08241.amsa
==============================
[keps]  orbs08241.amsa

Return-Path: <keps-bounces@amsat.org>
X-Rcpt: craig.healy@chowda.com
X-UIDL: 1219958532.6352

SB KEPS @ AMSAT  $ORB08241.O
Orbital Elements  08241.OSCAR

HR AMSAT ORBITAL ELEMENTS FOR OSCAR SATELLITES
FROM WA5QGD FORT WORTH,TX August 28, 2008
Send Subscribe/unsubscribe to KEPS at 
http://www.amsat.org/mailman/listinfo/keps
BID: ORB08241.O
TO ALL RADIO AMATEURS BT

Satellite: AO-07
Catalog number: 07530
Epoch time:      08241.51847692
Element set:     263
Inclination:      101.4624 deg
RA of node:       270.5848 deg
Eccentricity:    0.0012200
Arg of perigee:   120.4708 deg
Mean anomaly:     239.7570 deg
Mean motion:   12.53574023 rev/day
Decay rate:       -2.7e-07 rev/day^2
Epoch rev:           54604
Checksum:              274

Satellite: AO-10
Catalog number: 14129
Epoch time:      08241.07191244
Element set:     552
Inclination:      026.0248 deg
RA of node:       198.4493 deg
Eccentricity:    0.5968853
Arg of perigee:   152.2471 deg
Mean anomaly:     259.4565 deg
Mean motion:   02.05868533 rev/day
Decay rate:      -1.27e-06 rev/day^2
Epoch rev:           18958
Checksum:              327

Satellite: UO-11
Catalog number: 14781
Epoch time:      08240.86731438
Element set:    0753
Inclination:      098.1505 deg
RA of node:       275.9542 deg
Eccentricity:    0.0008647
Arg of perigee:   196.8312 deg
Mean anomaly:     163.2639 deg
Mean motion:   14.79659898 rev/day
Decay rate:        3.8e-07 rev/day^2
Epoch rev:           31445
Checksum:              344

Satellite: RS-15
Catalog number: 23439
Epoch time:      08240.85404734
Element set:    0168
Inclination:      064.8157 deg
RA of node:       019.1546 deg
Eccentricity:    0.0146866
Arg of perigee:   109.1248 deg
Mean anomaly:     252.5640 deg
Mean motion:   11.27553005 rev/day
Decay rate:       -3.9e-07 rev/day^2
Epoch rev:           56304
Checksum:              299

Satellite: FO-29
Catalog number: 24278
Epoch time:      08240.93015461
Element set:    0859
Inclination:      098.5812 deg
RA of node:       147.8146 deg
Eccentricity:    0.0351219
Arg of perigee:   029.9567 deg
Mean anomaly:     332.1172 deg
Mean motion:   13.52939033 rev/day
Decay rate:       -4.8e-07 rev/day^2
Epoch rev:           59409
Checksum:              330

Satellite: SO-33
Catalog number: 25509
Epoch time:      08240.48585004
Element set:     270
Inclination:      031.4353 deg
RA of node:       273.2104 deg
Eccentricity:    0.0355243
Arg of perigee:   290.5260 deg
Mean anomaly:     065.7586 deg
Mean motion:   14.28221588 rev/day
Decay rate:        6.9e-07 rev/day^2
Epoch rev:           51381
Checksum:              290

Satellite: AO-40
Catalog number: 26609
Epoch time:      08238.07061245
Element set:     108
Inclination:      007.7153 deg
RA of node:       064.6904 deg
Eccentricity:    0.7931208
Arg of perigee:   115.6815 deg
Mean anomaly:     341.3437 deg
Mean motion:   01.25584265 rev/day
Decay rate:      -3.60e-06 rev/day^2
Epoch rev:            3590
Checksum:              291

Satellite: VO-52
Catalog number: 28650
Epoch time:      08240.59464305
Element set:      16
Inclination:      097.7831 deg
RA of node:       305.2242 deg
Eccentricity:    0.0025974
Arg of perigee:   267.8628 deg
Mean anomaly:     091.9615 deg
Mean motion:   14.81491349 rev/day
Decay rate:      -2.70e-06 rev/day^2
Epoch rev:           17917
Checksum:              324

Satellite: PO-63
Catalog number: 29712
Epoch time:      08241.21687536
Element set:     748
Inclination:      097.8698 deg
RA of node:       298.0334 deg
Eccentricity:    0.0014820
Arg of perigee:   143.6730 deg
Mean anomaly:     216.5491 deg
Mean motion:   14.80248824 rev/day
Decay rate:       3.48e-06 rev/day^2
Epoch rev:            8812
Checksum:              330

/EX
SB KEPS @ AMSAT  $ORB08241.D
Orbital Elements  08241.MICROS

HR AMSAT ORBITAL ELEMENTS FOR THE MICROSATS
FROM WA5QGD FORT WORTH,TX August 28, 2008
Send Subscribe/unsubscribe to KEPS at 
http://www.amsat.org/mailman/listinfo/keps
BID: ORB08241.D
TO ALL RADIO AMATEURS BT

Satellite: AO-16
Catalog number: 20439
Epoch time:      08241.46915984
Element set:     404
Inclination:      098.2373 deg
RA of node:       217.8615 deg
Eccentricity:    0.0010570
Arg of perigee:   327.1897 deg
Mean anomaly:     032.8632 deg
Mean motion:   14.31801366 rev/day
Decay rate:        1.5e-07 rev/day^2
Epoch rev:           97126
Checksum:              305

Satellite: LO-19
Catalog number: 20442
Epoch time:      08240.52629685
Element set:     327
Inclination:      098.2064 deg
RA of node:       225.2837 deg
Eccentricity:    0.0011426
Arg of perigee:   326.8445 deg
Mean anomaly:     033.2037 deg
Mean motion:   14.32039017 rev/day
Decay rate:       -1.8e-07 rev/day^2
Epoch rev:           97128
Checksum:              291

Satellite: AO-27
Catalog number: 22825
Epoch time:      08241.51821973
Element set:      51
Inclination:      098.3908 deg
RA of node:       198.8513 deg
Eccentricity:    0.0009145
Arg of perigee:   052.5009 deg
Mean anomaly:     307.6987 deg
Mean motion:   14.29245589 rev/day
Decay rate:       -4.0e-08 rev/day^2
Epoch rev:           77810
Checksum:              326

Satellite: IO-26
Catalog number: 22826
Epoch time:      08240.64974240
Element set:    0760
Inclination:      098.3840 deg
RA of node:       198.8921 deg
Eccentricity:    0.0009805
Arg of perigee:   049.8884 deg
Mean anomaly:     310.3152 deg
Mean motion:   14.29494854 rev/day
Decay rate:        1.0e-08 rev/day^2
Epoch rev:           77807
Checksum:              331

